CCA351 VHHH-ZYTX

Flight info

Callsign CCA351
Flight time N/A
Altitude FL391
Route BEKO2F BEKOL A461 IDUMA W41 ISLOM G471 PLT A599 TUPGA W135 ADBAS V77 LURMA A599 JTN W116 PK G455 HSH V2 ODULO B221 XDX W174 FD W172 TEKAM V68 DOBGA W202 UDETI A588 TOSID TOS71A
Aircraft B752/M-CDGHLRTWZ/CB1D1

Departure

Time N/A
Airport Hong Kong International Airport (VHHH)

Arrival

Time 2026-04-23 14:41
Airport Shenyang Taoxian International Airport (ZYTX)
Time Latitude Longitude Altitude Speed Heading
2026-04-23 12:12 27.54928 116.95598 39122 ft 547 kts 38°
2026-04-23 12:12 27.57576 116.98663 39123 ft 547 kts 38°
2026-04-23 12:12 27.62888 117.04791 39123 ft 548 kts 38°
2026-04-23 12:13 27.68197 117.10925 39122 ft 548 kts 38°
2026-04-23 12:13 27.73501 117.17075 39123 ft 548 kts 38°
2026-04-23 12:14 27.78811 117.23245 39125 ft 549 kts 38°
2026-04-23 12:14 27.83924 117.29195 39123 ft 549 kts 38°
2026-04-23 12:15 27.89320 117.35485 39122 ft 551 kts 38°
2026-04-23 12:15 27.94656 117.41709 39123 ft 553 kts 38°
2026-04-23 12:16 28.00020 117.47974 39125 ft 558 kts 38°
2026-04-23 12:16 28.05422 117.54294 39124 ft 560 kts 38°
2026-04-23 12:17 28.10668 117.60452 39123 ft 560 kts 38°
2026-04-23 12:17 28.16065 117.66792 39122 ft 559 kts 38°
2026-04-23 12:18 28.21443 117.73116 39121 ft 559 kts 38°
2026-04-23 12:18 28.26833 117.79462 39122 ft 559 kts 38°
2026-04-23 12:19 28.32210 117.85804 39122 ft 559 kts 38°
2026-04-23 12:19 28.37585 117.92154 39123 ft 559 kts 38°
2026-04-23 12:20 28.42951 117.98525 39122 ft 560 kts 39°
2026-04-23 12:20 28.48243 118.04989 39122 ft 560 kts 39°
2026-04-23 12:21 28.53519 118.11521 39123 ft 562 kts 40°
2026-04-23 12:21 28.58793 118.18053 39124 ft 562 kts 39°
2026-04-23 12:22 28.64067 118.24576 39121 ft 560 kts 39°
2026-04-23 12:22 28.69337 118.31089 39122 ft 560 kts 39°
2026-04-23 12:23 28.74592 118.37593 39122 ft 559 kts 39°
2026-04-23 12:23 28.79855 118.44117 39124 ft 561 kts 40°
2026-04-23 12:24 28.85117 118.50654 39122 ft 561 kts 40°
2026-04-23 12:24 28.90383 118.57209 39123 ft 561 kts 40°
2026-04-23 12:25 28.95647 118.63770 39123 ft 562 kts 40°
2026-04-23 12:25 29.00918 118.70350 39123 ft 563 kts 40°
2026-04-23 12:26 29.06177 118.76931 39121 ft 561 kts 40°
2026-04-23 12:26 29.11432 118.83512 39122 ft 562 kts 40°
2026-04-23 12:27 29.16683 118.90101 39123 ft 561 kts 40°
2026-04-23 12:27 29.21929 118.96693 39122 ft 561 kts 40°
2026-04-23 12:28 29.27171 119.03290 39123 ft 562 kts 40°
2026-04-23 12:28 29.32410 119.09896 39122 ft 561 kts 40°
2026-04-23 12:29 29.37230 119.16938 39116 ft 568 kts 54°
2026-04-23 12:29 29.40647 119.25140 39127 ft 575 kts 66°
2026-04-23 12:30 29.43499 119.33717 39124 ft 577 kts 67°
2026-04-23 12:30 29.46424 119.42269 39122 ft 577 kts 65°
2026-04-23 12:31 29.49532 119.50728 39122 ft 576 kts 64°
2026-04-23 12:31 29.52716 119.59132 39122 ft 575 kts 64°
2026-04-23 12:32 29.54465 119.63246 39098 ft 573 kts 53°
2026-04-23 12:32 29.56880 119.66825 39126 ft 564 kts 38°
2026-04-23 12:32 29.59795 119.69758 39139 ft 554 kts 27°
2026-04-23 12:32 29.62952 119.72213 39133 ft 545 kts 21°
2026-04-23 12:33 29.69419 119.76544 39120 ft 535 kts 19°
2026-04-23 12:33 29.75791 119.80973 39120 ft 537 kts 22°
2026-04-23 12:34 29.82025 119.85713 39121 ft 539 kts 24°
2026-04-23 12:34 29.88221 119.90590 39124 ft 541 kts 24°
2026-04-23 12:35 29.94414 119.95466 39122 ft 540 kts 24°
2026-04-23 12:35 30.00627 120.00321 39120 ft 539 kts 24°
2026-04-23 12:36 30.05942 120.04467 39118 ft 537 kts 24°
2026-04-23 12:36 30.12118 120.09289 39121 ft 537 kts 24°
2026-04-23 12:37 30.17399 120.13419 39122 ft 537 kts 24°
2026-04-23 12:37 30.23568 120.18253 39122 ft 537 kts 24°
2026-04-23 12:38 30.29733 120.23094 39122 ft 536 kts 24°
2026-04-23 12:38 30.35905 120.27928 39123 ft 537 kts 24°
2026-04-23 12:39 30.42125 120.32662 39122 ft 536 kts 22°
2026-04-23 12:39 30.48353 120.37351 39121 ft 535 kts 22°
2026-04-23 12:40 30.54570 120.42049 39121 ft 535 kts 23°
2026-04-23 12:40 30.60783 120.46770 39120 ft 535 kts 23°
2026-04-23 12:41 30.66988 120.51499 39120 ft 535 kts 23°
2026-04-23 12:41 30.73199 120.56239 39120 ft 535 kts 23°
2026-04-23 12:42 30.79409 120.60984 39119 ft 536 kts 24°
2026-04-23 12:42 30.85635 120.65746 39119 ft 537 kts 24°
2026-04-23 12:43 30.91873 120.70526 39118 ft 539 kts 24°
2026-04-23 12:43 30.97562 120.76213 39093 ft 551 kts 48°
2026-04-23 12:44 30.99504 120.80076 39120 ft 559 kts 63°
2026-04-23 12:44 31.00851 120.84343 39134 ft 566 kts 73°
2026-04-23 12:44 31.02657 120.93312 39124 ft 571 kts 79°
2026-04-23 12:45 31.04089 121.01081 39117 ft 570 kts 77°
2026-04-23 12:45 31.06034 121.10013 39118 ft 570 kts 74°
2026-04-23 12:46 31.08231 121.18880 39118 ft 570 kts 72°
2026-04-23 12:46 31.10831 121.27553 39091 ft 567 kts 58°
2026-04-23 12:47 31.13019 121.31329 39117 ft 561 kts 42°
2026-04-23 12:47 31.15851 121.34378 39127 ft 549 kts 26°
2026-04-23 12:47 31.19113 121.36509 39129 ft 532 kts 11°
2026-04-23 12:47 31.22515 121.38137 39128 ft 533 kts 17°
2026-04-23 12:48 31.25629 121.40528 39097 ft 539 kts 31°
2026-04-23 12:48 31.28316 121.43553 39098 ft 541 kts 43°
2026-04-23 12:48 31.30476 121.47199 39102 ft 551 kts 58°
2026-04-23 12:48 31.32013 121.51327 39120 ft 561 kts 70°
2026-04-23 12:49 31.33692 121.60289 39125 ft 569 kts 83°
2026-04-23 12:49 31.34693 121.69469 39109 ft 570 kts 84°
2026-04-23 12:50 31.36567 121.78392 39090 ft 567 kts 60°
2026-04-23 12:50 31.38652 121.82276 39108 ft 562 kts 44°
2026-04-23 12:50 31.41394 121.85448 39111 ft 551 kts 28°
2026-04-23 12:51 31.44608 121.87728 39109 ft 533 kts 13°
2026-04-23 12:51 31.48061 121.88997 39106 ft 511 kts 358°
2026-04-23 12:51 31.51497 121.89215 39104 ft 483 kts 342°
2026-04-23 12:51 31.54673 121.88428 39103 ft 454 kts 327°
2026-04-23 12:52 31.57413 121.86865 39111 ft 428 kts 317°
2026-04-23 12:52 31.59879 121.85028 39101 ft 414 kts 313°
2026-04-23 12:52 31.64797 121.81636 39085 ft 418 kts 324°
2026-04-23 12:53 31.67620 121.80661 39097 ft 432 kts 334°
2026-04-23 12:53 31.70637 121.80138 39111 ft 447 kts 340°
2026-04-23 12:53 31.76956 121.79618 39115 ft 462 kts 342°
2026-04-23 12:54 31.83353 121.79047 39108 ft 462 kts 341°
2026-04-23 12:54 31.89748 121.78290 39110 ft 463 kts 340°
2026-04-23 12:55 31.96123 121.77514 39106 ft 459 kts 340°
2026-04-23 12:55 32.02461 121.76760 39107 ft 460 kts 340°
2026-04-23 12:56 32.08840 121.76000 39111 ft 463 kts 340°
2026-04-23 12:56 32.15218 121.75252 39107 ft 460 kts 340°
2026-04-23 12:57 32.21583 121.74499 39110 ft 462 kts 340°
2026-04-23 12:57 32.27986 121.73732 39110 ft 464 kts 340°
2026-04-23 12:58 32.34403 121.72972 39111 ft 464 kts 340°
2026-04-23 12:58 32.40818 121.72212 39108 ft 463 kts 340°
2026-04-23 12:59 32.47216 121.71450 39109 ft 463 kts 340°
2026-04-23 12:59 32.53622 121.70684 39109 ft 463 kts 340°
2026-04-23 13:00 32.60013 121.69921 39109 ft 462 kts 340°
2026-04-23 13:00 32.66399 121.69156 39110 ft 462 kts 340°
2026-04-23 13:01 32.72790 121.68389 39110 ft 463 kts 340°
2026-04-23 13:01 32.79186 121.67619 39110 ft 463 kts 340°
2026-04-23 13:02 32.85587 121.66851 39108 ft 463 kts 340°
2026-04-23 13:02 32.91994 121.66079 39111 ft 464 kts 340°
2026-04-23 13:03 32.98395 121.65308 39110 ft 463 kts 340°
2026-04-23 13:03 33.04809 121.64532 39110 ft 465 kts 340°
2026-04-23 13:04 33.11232 121.63756 39109 ft 463 kts 340°
2026-04-23 13:04 33.17634 121.62983 39111 ft 464 kts 340°
2026-04-23 13:05 33.24020 121.62158 39104 ft 458 kts 337°
2026-04-23 13:05 33.27079 121.61302 39113 ft 447 kts 329°
2026-04-23 13:05 33.29961 121.60035 39118 ft 440 kts 323°
2026-04-23 13:06 33.38135 121.55496 39107 ft 427 kts 322°
2026-04-23 13:07 33.43559 121.52619 39109 ft 428 kts 323°
2026-04-23 13:07 33.49028 121.49819 39111 ft 429 kts 323°
2026-04-23 13:08 33.54505 121.47009 39111 ft 430 kts 323°
2026-04-23 13:08 33.59982 121.44178 39112 ft 430 kts 323°
2026-04-23 13:09 33.65458 121.41343 39111 ft 430 kts 323°
2026-04-23 13:09 33.70988 121.38611 39111 ft 431 kts 324°
2026-04-23 13:10 33.76576 121.36007 39112 ft 432 kts 325°
2026-04-23 13:10 33.82170 121.33383 39114 ft 434 kts 325°
2026-04-23 13:11 33.87786 121.30724 39114 ft 435 kts 325°
2026-04-23 13:11 33.93399 121.28061 39113 ft 434 kts 324°
2026-04-23 13:12 33.98997 121.25400 39113 ft 433 kts 324°
2026-04-23 13:12 34.04599 121.22734 39114 ft 434 kts 324°
2026-04-23 13:13 34.10203 121.20064 39112 ft 433 kts 324°
2026-04-23 13:13 34.15787 121.17404 39115 ft 432 kts 324°
2026-04-23 13:14 34.21359 121.14741 39119 ft 431 kts 324°
2026-04-23 13:14 34.26929 121.12072 39121 ft 432 kts 324°
2026-04-23 13:15 34.32521 121.09393 39123 ft 433 kts 324°
2026-04-23 13:15 34.38102 121.06716 39122 ft 432 kts 324°
2026-04-23 13:16 34.43683 121.04036 39121 ft 431 kts 324°
2026-04-23 13:16 34.49263 121.01348 39122 ft 433 kts 324°
2026-04-23 13:17 34.54839 120.98661 39122 ft 432 kts 324°
2026-04-23 13:17 34.60407 120.95977 39122 ft 430 kts 324°
2026-04-23 13:18 34.65961 120.93291 39123 ft 432 kts 324°
2026-04-23 13:18 34.71544 120.90586 39122 ft 433 kts 324°
2026-04-23 13:19 34.77128 120.87881 39122 ft 432 kts 324°
2026-04-23 13:19 34.82684 120.85187 39122 ft 431 kts 324°
2026-04-23 13:20 34.88262 120.82470 39123 ft 433 kts 324°
2026-04-23 13:20 34.93830 120.79753 39093 ft 435 kts 329°
2026-04-23 13:21 34.99524 120.76964 39102 ft 448 kts 330°
2026-04-23 13:21 35.05338 120.74135 39096 ft 452 kts 330°
2026-04-23 13:22 35.11160 120.71300 39093 ft 451 kts 330°
2026-04-23 13:22 35.16981 120.68456 39093 ft 451 kts 330°
2026-04-23 13:23 35.22800 120.65630 39093 ft 451 kts 330°
2026-04-23 13:23 35.28637 120.62798 39093 ft 452 kts 330°
2026-04-23 13:24 35.34458 120.59967 39093 ft 451 kts 330°
2026-04-23 13:24 35.40289 120.57131 39093 ft 452 kts 330°
2026-04-23 13:25 35.46114 120.54318 39093 ft 452 kts 330°
2026-04-23 13:25 35.51953 120.51487 39101 ft 452 kts 330°
2026-04-23 13:26 35.57780 120.48646 39120 ft 452 kts 330°
2026-04-23 13:26 35.63611 120.45798 39122 ft 451 kts 330°
2026-04-23 13:27 35.69433 120.42952 39122 ft 451 kts 330°
2026-04-23 13:27 35.75259 120.40100 39122 ft 451 kts 330°
2026-04-23 13:28 35.81084 120.37244 39122 ft 451 kts 330°
2026-04-23 13:28 35.86906 120.34384 39122 ft 451 kts 330°
2026-04-23 13:29 35.92728 120.31521 39123 ft 451 kts 330°
2026-04-23 13:29 35.98790 120.29476 39109 ft 462 kts 348°
2026-04-23 13:30 36.03659 120.29875 39128 ft 478 kts
2026-04-23 13:30 36.10214 120.31802 39129 ft 490 kts
2026-04-23 13:31 36.16819 120.33869 39125 ft 491 kts
2026-04-23 13:31 36.23468 120.35675 39122 ft 489 kts
2026-04-23 13:32 36.30114 120.37442 39120 ft 490 kts
2026-04-23 13:32 36.36673 120.39817 39123 ft 493 kts 11°
2026-04-23 13:33 36.43188 120.42456 39123 ft 495 kts 11°
2026-04-23 13:33 36.49739 120.45062 39123 ft 495 kts 11°
2026-04-23 13:34 36.56297 120.47602 39122 ft 494 kts 11°
2026-04-23 13:34 36.62832 120.50248 39122 ft 495 kts 12°
2026-04-23 13:35 36.69345 120.53039 39123 ft 496 kts 13°
2026-04-23 13:35 36.75856 120.55843 39123 ft 496 kts 12°
2026-04-23 13:36 36.82366 120.58626 39122 ft 495 kts 12°
2026-04-23 13:36 36.88863 120.61395 39122 ft 495 kts 12°
2026-04-23 13:37 36.95435 120.63836 39125 ft 492 kts
2026-04-23 13:37 37.02138 120.65156 39123 ft 485 kts 360°
2026-04-23 13:38 37.08803 120.66171 39121 ft 483 kts
2026-04-23 13:38 37.15450 120.67317 39122 ft 484 kts
2026-04-23 13:39 37.22094 120.68570 39122 ft 485 kts
2026-04-23 13:39 37.28754 120.69841 39123 ft 485 kts
2026-04-23 13:40 37.35409 120.71097 39122 ft 485 kts
2026-04-23 13:40 37.42060 120.72347 39122 ft 485 kts
2026-04-23 13:41 37.48717 120.73600 39122 ft 485 kts
2026-04-23 13:41 37.55369 120.74858 39121 ft 485 kts
2026-04-23 13:41 37.58658 120.75863 39108 ft 489 kts 13°
2026-04-23 13:42 37.61776 120.77588 39121 ft 496 kts 22°
2026-04-23 13:42 37.67615 120.82397 39128 ft 507 kts 31°
2026-04-23 13:43 37.73303 120.87677 39124 ft 509 kts 31°
2026-04-23 13:43 37.79085 120.92777 39123 ft 507 kts 29°
2026-04-23 13:44 37.84943 120.97721 39122 ft 507 kts 28°
2026-04-23 13:44 37.90805 121.02640 39122 ft 506 kts 28°
2026-04-23 13:45 37.96654 121.07590 39122 ft 507 kts 29°
2026-04-23 13:45 38.02494 121.12562 39124 ft 507 kts 29°
2026-04-23 13:46 38.08312 121.17528 39114 ft 503 kts 29°
2026-04-23 13:46 38.14105 121.22480 39115 ft 503 kts 29°
2026-04-23 13:47 38.19893 121.27431 39111 ft 502 kts 29°
2026-04-23 13:47 38.25668 121.32383 39108 ft 501 kts 30°
2026-04-23 13:48 38.31437 121.37342 39107 ft 501 kts 30°
2026-04-23 13:48 38.37191 121.42299 39103 ft 500 kts 30°
2026-04-23 13:49 38.42387 121.48137 39099 ft 505 kts 50°
2026-04-23 13:49 38.45948 121.55876 39111 ft 510 kts 64°
2026-04-23 13:50 38.48852 121.64128 39102 ft 511 kts 65°
2026-04-23 13:50 38.51864 121.72324 39101 ft 511 kts 63°
2026-04-23 13:51 38.55052 121.80395 39098 ft 509 kts 62°
2026-04-23 13:51 38.58278 121.88419 39096 ft 509 kts 62°
2026-04-23 13:52 38.61490 121.96477 39101 ft 510 kts 62°
2026-04-23 13:52 38.64682 122.04562 39100 ft 510 kts 62°
2026-04-23 13:53 38.67891 122.12636 39090 ft 510 kts 58°
2026-04-23 13:53 38.69957 122.16285 39092 ft 508 kts 45°
2026-04-23 13:53 38.72550 122.19320 39107 ft 504 kts 33°
2026-04-23 13:54 38.78442 122.24010 39103 ft 497 kts 24°
2026-04-23 13:54 38.84486 122.28214 39098 ft 495 kts 25°
2026-04-23 13:55 38.90414 122.32677 39097 ft 495 kts 27°
2026-04-23 13:55 38.96260 122.37339 39099 ft 496 kts 27°
2026-04-23 13:56 39.02105 122.42038 39100 ft 496 kts 27°
2026-04-23 13:56 39.07967 122.46718 39099 ft 497 kts 27°
2026-04-23 13:57 39.13828 122.51388 39100 ft 496 kts 27°
2026-04-23 13:57 39.19684 122.56064 39099 ft 496 kts 27°
2026-04-23 13:58 39.25539 122.60751 39099 ft 496 kts 27°
2026-04-23 13:58 39.31471 122.65216 39098 ft 493 kts 24°
2026-04-23 13:59 39.37478 122.69429 39096 ft 491 kts 24°
2026-04-23 13:59 39.43474 122.73635 39095 ft 491 kts 24°
2026-04-23 14:00 39.48451 122.77180 39095 ft 491 kts 24°
2026-04-23 14:00 39.55386 122.82161 39092 ft 489 kts 24°
2026-04-23 14:01 39.61328 122.86434 39092 ft 489 kts 24°
2026-04-23 14:01 39.67266 122.90707 39093 ft 489 kts 24°
2026-04-23 14:02 39.73207 122.94990 39093 ft 489 kts 24°
2026-04-23 14:02 39.79152 122.99284 39093 ft 489 kts 24°
2026-04-23 14:03 39.85082 123.03577 39093 ft 489 kts 24°
2026-04-23 14:03 39.91020 123.07884 39093 ft 489 kts 24°
2026-04-23 14:04 39.96930 123.12180 39093 ft 489 kts 25°
2026-04-23 14:04 40.02891 123.16521 39093 ft 489 kts 25°
2026-04-23 14:05 40.08824 123.20823 39077 ft 489 kts 24°
2026-04-23 14:05 40.11796 123.22962 38779 ft 486 kts 24°
2026-04-23 14:05 40.14732 123.25076 38432 ft 480 kts 24°
2026-04-23 14:05 40.17630 123.27163 38080 ft 474 kts 24°
2026-04-23 14:06 40.20495 123.29230 37729 ft 469 kts 24°
2026-04-23 14:06 40.23337 123.31282 37380 ft 467 kts 24°
2026-04-23 14:06 40.26171 123.33329 37030 ft 464 kts 24°
2026-04-23 14:06 40.28978 123.35361 36681 ft 461 kts 25°
2026-04-23 14:07 40.31772 123.37385 36330 ft 458 kts 25°
2026-04-23 14:07 40.37294 123.41395 35631 ft 451 kts 25°
2026-04-23 14:07 40.40020 123.43377 35281 ft 448 kts 25°
2026-04-23 14:08 40.42736 123.45353 34932 ft 445 kts 25°
2026-04-23 14:08 40.45429 123.47314 34582 ft 442 kts 25°
2026-04-23 14:08 40.48104 123.49264 34232 ft 439 kts 25°
2026-04-23 14:08 40.50759 123.51201 33882 ft 436 kts 25°
2026-04-23 14:09 40.53397 123.53127 33533 ft 433 kts 25°
2026-04-23 14:09 40.56014 123.55040 33182 ft 430 kts 25°
2026-04-23 14:09 40.58581 123.57026 32829 ft 428 kts 30°
2026-04-23 14:09 40.61008 123.59263 32482 ft 426 kts 34°
2026-04-23 14:10 40.63326 123.61658 32134 ft 424 kts 36°
2026-04-23 14:10 40.65595 123.64109 31784 ft 422 kts 37°
2026-04-23 14:10 40.67851 123.66547 31435 ft 418 kts 37°
2026-04-23 14:10 40.70101 123.68942 31093 ft 414 kts 34°
2026-04-23 14:11 40.72341 123.71282 30741 ft 409 kts 33°
2026-04-23 14:11 40.74556 123.73569 30391 ft 403 kts 33°
2026-04-23 14:11 40.76752 123.75831 30036 ft 398 kts 33°
2026-04-23 14:11 40.78916 123.78065 29687 ft 394 kts 33°
2026-04-23 14:12 40.81055 123.80283 29336 ft 389 kts 33°
2026-04-23 14:12 40.83170 123.82480 28986 ft 386 kts 33°
2026-04-23 14:12 40.85268 123.84663 28635 ft 383 kts 33°
2026-04-23 14:12 40.87347 123.86829 28286 ft 380 kts 33°
2026-04-23 14:13 40.89415 123.88982 27936 ft 378 kts 33°
2026-04-23 14:13 40.91532 123.90995 27586 ft 374 kts 28°
2026-04-23 14:13 40.93739 123.92756 27238 ft 369 kts 24°
2026-04-23 14:13 40.95988 123.94346 26889 ft 365 kts 22°
2026-04-23 14:14 40.98223 123.95869 26540 ft 360 kts 22°
2026-04-23 14:14 41.00425 123.97391 26189 ft 356 kts 23°
2026-04-23 14:14 41.02591 123.98927 25835 ft 353 kts 24°
2026-04-23 14:14 41.04745 124.00477 25487 ft 352 kts 24°
2026-04-23 14:15 41.06884 124.02024 25139 ft 350 kts 24°
2026-04-23 14:15 41.09007 124.03559 24788 ft 347 kts 24°
2026-04-23 14:15 41.11115 124.05081 24439 ft 344 kts 24°
2026-04-23 14:15 41.13211 124.06592 24088 ft 343 kts 24°
2026-04-23 14:16 41.15294 124.08095 23739 ft 341 kts 24°
2026-04-23 14:16 41.17366 124.09593 23390 ft 339 kts 24°
2026-04-23 14:16 41.19423 124.11083 23040 ft 337 kts 24°
2026-04-23 14:16 41.21469 124.12566 22690 ft 335 kts 24°
2026-04-23 14:17 41.23505 124.14043 22340 ft 333 kts 24°
2026-04-23 14:17 41.25527 124.15510 21992 ft 331 kts 24°
2026-04-23 14:17 41.27542 124.16973 21642 ft 330 kts 24°
2026-04-23 14:17 41.29544 124.18426 21292 ft 328 kts 24°
2026-04-23 14:18 41.31535 124.19869 20942 ft 326 kts 24°
2026-04-23 14:18 41.33521 124.21308 20593 ft 324 kts 24°
2026-04-23 14:18 41.35488 124.22736 20243 ft 322 kts 24°
2026-04-23 14:18 41.37447 124.24158 19894 ft 321 kts 24°
2026-04-23 14:19 41.39396 124.25576 19543 ft 318 kts 24°
2026-04-23 14:19 41.41326 124.26982 19193 ft 316 kts 24°
2026-04-23 14:19 41.43242 124.28380 18842 ft 313 kts 24°
2026-04-23 14:19 41.45145 124.29768 18492 ft 311 kts 24°
2026-04-23 14:20 41.47023 124.31159 18143 ft 309 kts 25°
2026-04-23 14:20 41.48881 124.32586 17791 ft 308 kts 26°
2026-04-23 14:20 41.50719 124.34022 17441 ft 306 kts 26°
2026-04-23 14:20 41.52547 124.35448 17091 ft 304 kts 26°
2026-04-23 14:21 41.54367 124.36861 16741 ft 303 kts 26°
2026-04-23 14:21 41.56178 124.38264 16392 ft 301 kts 26°
2026-04-23 14:21 41.57989 124.39665 16042 ft 300 kts 26°
2026-04-23 14:21 41.59794 124.41044 15692 ft 300 kts 25°
2026-04-23 14:22 41.61604 124.42414 15342 ft 299 kts 25°
2026-04-23 14:22 41.63405 124.43779 14992 ft 298 kts 25°
2026-04-23 14:22 41.65197 124.45140 14643 ft 297 kts 25°
2026-04-23 14:22 41.66988 124.46503 14294 ft 296 kts 25°
2026-04-23 14:23 41.68767 124.47859 13945 ft 296 kts 26°
2026-04-23 14:23 41.70548 124.49216 13596 ft 295 kts 26°
2026-04-23 14:23 41.72328 124.50573 13246 ft 294 kts 26°
2026-04-23 14:23 41.74105 124.51928 12896 ft 294 kts 26°
2026-04-23 14:24 41.75878 124.53282 12547 ft 294 kts 26°
2026-04-23 14:24 41.77727 124.54375 12179 ft 290 kts 13°
2026-04-23 14:24 41.79677 124.54994 11848 ft 288 kts
2026-04-23 14:24 41.81646 124.55375 11485 ft 285 kts 358°
2026-04-23 14:25 41.83580 124.55054 11142 ft 279 kts 342°
2026-04-23 14:25 41.85394 124.54177 10801 ft 277 kts 334°
2026-04-23 14:25 41.87157 124.53167 10447 ft 276 kts 332°
2026-04-23 14:25 41.88672 124.51659 10054 ft 271 kts 308°
2026-04-23 14:26 41.89513 124.49459 9731 ft 264 kts 283°
2026-04-23 14:26 41.89843 124.47059 9428 ft 262 kts 276°
2026-04-23 14:26 41.90075 124.44629 9056 ft 263 kts 275°
2026-04-23 14:26 41.90293 124.42195 8704 ft 263 kts 275°
2026-04-23 14:27 41.90508 124.39758 8355 ft 264 kts 275°
2026-04-23 14:27 41.90619 124.37314 7992 ft 263 kts 265°
2026-04-23 14:27 41.90213 124.34953 7653 ft 260 kts 248°
2026-04-23 14:27 41.89452 124.32753 7310 ft 260 kts 243°
2026-04-23 14:28 41.88655 124.30583 6960 ft 260 kts 244°
2026-04-23 14:28 41.87918 124.28371 6612 ft 260 kts 246°
2026-04-23 14:28 41.87214 124.26142 6263 ft 260 kts 246°
2026-04-23 14:28 41.86506 124.23911 5914 ft 260 kts 245°
2026-04-23 14:29 41.85790 124.21688 5566 ft 260 kts 245°
2026-04-23 14:29 41.85071 124.19465 5216 ft 260 kts 245°
2026-04-23 14:29 41.84353 124.17247 4868 ft 260 kts 245°
2026-04-23 14:29 41.83637 124.15030 4519 ft 260 kts 245°
2026-04-23 14:30 41.82918 124.12809 4170 ft 260 kts 245°
2026-04-23 14:30 41.82252 124.10564 3818 ft 260 kts 249°
2026-04-23 14:30 41.81766 124.08235 3472 ft 260 kts 255°
2026-04-23 14:30 41.81368 124.05882 3154 ft 259 kts 256°
2026-04-23 14:31 41.80965 124.03562 2995 ft 251 kts 255°
2026-04-23 14:31 41.80613 124.01326 2924 ft 241 kts 262°
2026-04-23 14:31 41.80711 123.99142 2927 ft 230 kts 275°
2026-04-23 14:31 41.80965 123.97074 2928 ft 223 kts 277°
2026-04-23 14:32 41.81231 123.95037 2931 ft 222 kts 277°
2026-04-23 14:32 41.81499 123.93002 2933 ft 222 kts 277°
2026-04-23 14:32 41.81767 123.90964 2934 ft 222 kts 277°
2026-04-23 14:32 41.82038 123.88929 2936 ft 222 kts 277°
2026-04-23 14:33 41.82346 123.86905 2966 ft 220 kts 279°
2026-04-23 14:33 41.82660 123.84950 2927 ft 209 kts 279°
2026-04-23 14:33 41.82964 123.83087 2920 ft 203 kts 279°
2026-04-23 14:33 41.83255 123.81245 2926 ft 202 kts 276°
2026-04-23 14:34 41.83205 123.79404 2919 ft 194 kts 256°
2026-04-23 14:34 41.82770 123.77750 3008 ft 187 kts 244°
2026-04-23 14:34 41.82134 123.76239 2976 ft 186 kts 236°
2026-04-23 14:34 41.81385 123.74834 2978 ft 185 kts 232°
2026-04-23 14:35 41.80582 123.73489 2990 ft 185 kts 230°
2026-04-23 14:35 41.79753 123.72177 2996 ft 185 kts 229°
2026-04-23 14:35 41.78906 123.70877 2999 ft 185 kts 228°
2026-04-23 14:35 41.78053 123.69588 3000 ft 185 kts 227°
2026-04-23 14:36 41.77197 123.68303 2998 ft 183 kts 227°
2026-04-23 14:36 41.76384 123.67089 2992 ft 169 kts 227°
2026-04-23 14:36 41.75618 123.65946 2985 ft 160 kts 227°
2026-04-23 14:36 41.74893 123.64867 2982 ft 153 kts 227°
2026-04-23 14:37 41.74201 123.63838 2849 ft 143 kts 227°
2026-04-23 14:37 41.73559 123.62883 2702 ft 136 kts 227°
2026-04-23 14:37 41.72931 123.61951 2567 ft 135 kts 227°
2026-04-23 14:37 41.72308 123.61025 2400 ft 134 kts 227°
2026-04-23 14:38 41.71685 123.60101 2224 ft 134 kts 227°
2026-04-23 14:38 41.71061 123.59174 2048 ft 134 kts 227°
2026-04-23 14:38 41.70435 123.58244 1874 ft 135 kts 227°
2026-04-23 14:38 41.69800 123.57304 1699 ft 139 kts 227°
2026-04-23 14:39 41.69152 123.56342 1495 ft 140 kts 227°
2026-04-23 14:39 41.68504 123.55380 1315 ft 139 kts 227°
2026-04-23 14:39 41.67863 123.54430 1125 ft 137 kts 227°
2026-04-23 14:39 41.67228 123.53488 948 ft 136 kts 227°
2026-04-23 14:40 41.66597 123.52554 759 ft 136 kts 227°
2026-04-23 14:40 41.65961 123.51605 593 ft 137 kts 228°
2026-04-23 14:40 41.65318 123.50665 385 ft 137 kts 227°
2026-04-23 14:40 41.64681 123.49726 219 ft 137 kts 228°
2026-04-23 14:41 41.64119 123.48875 208 ft 97 kts 226°
2026-04-23 14:41 41.63853 123.48483 208 ft 21 kts 228°
2026-04-23 14:41 41.63753 123.48333 208 ft 20 kts 228°
2026-04-23 14:41 41.63676 123.48219 208 ft 14 kts 227°
2026-04-23 14:42 41.63620 123.48142 208 ft 6 kts 223°
2026-04-23 14:42 41.63566 123.48084 208 ft 15 kts 213°
2026-04-23 14:42 41.63510 123.48041 208 ft 0 kts 205°